Time,TemperatureF,DewpointF,PressureIn,WindDirection,WindDirectionDegrees,WindSpeedMPH,WindSpeedGustMPH,Humidity,HourlyPrecipIn,Conditions,Clouds,dailyrainin,SoftwareType,DateUTC
2013-06-03 00:12:00,62.0,58.0,29.92,NW,308,0.0,0.0,88,0.00,,,0.00,,2013-06-03 05:12:00,
2013-06-03 00:22:00,62.0,58.0,29.92,NW,308,0.0,0.0,88,0.00,,,0.00,,2013-06-03 05:22:00,
2013-06-03 00:32:00,61.0,57.0,29.93,NW,308,0.0,0.0,87,0.00,,,0.00,,2013-06-03 05:32:00,
2013-06-03 00:42:00,61.0,57.0,29.93,NW,308,0.0,0.0,87,0.00,,,0.00,,2013-06-03 05:42:00,
2013-06-03 00:52:00,61.0,57.0,29.93,NW,308,0.0,0.0,88,0.00,,,0.00,,2013-06-03 05:52:00,
2013-06-03 01:02:00,61.0,58.0,29.93,NW,308,0.0,1.0,89,0.00,,,0.00,,2013-06-03 06:02:00,
2013-06-03 01:12:00,61.0,58.0,29.93,NW,308,0.0,1.0,89,0.00,,,0.00,,2013-06-03 06:12:00,
2013-06-03 01:22:00,61.0,58.0,29.93,NW,308,0.0,1.0,90,0.00,,,0.00,,2013-06-03 06:22:00,
2013-06-03 01:32:00,61.0,58.0,29.92,NW,308,0.0,0.0,91,0.00,,,0.00,,2013-06-03 06:32:00,
2013-06-03 01:42:00,61.0,58.0,29.92,NW,308,0.0,0.0,91,0.00,,,0.00,,2013-06-03 06:42:00,
2013-06-03 01:52:00,60.0,57.0,29.92,NW,308,0.0,0.0,91,0.00,,,0.00,,2013-06-03 06:52:00,
2013-06-03 02:02:00,60.0,58.0,29.92,NW,308,1.0,1.0,92,0.00,,,0.00,,2013-06-03 07:02:00,
2013-06-03 02:12:00,60.0,58.0,29.92,NW,308,1.0,1.0,92,0.00,,,0.00,,2013-06-03 07:12:00,
2013-06-03 02:22:00,60.0,58.0,29.92,NW,308,0.0,1.0,92,0.00,,,0.00,,2013-06-03 07:22:00,
2013-06-03 02:32:00,60.0,58.0,29.92,NW,321,1.0,2.0,92,0.00,,,0.00,,2013-06-03 07:32:00,
2013-06-03 02:42:00,60.0,58.0,29.92,NW,321,1.0,2.0,92,0.00,,,0.00,,2013-06-03 07:42:00,
2013-06-03 02:52:00,60.0,58.0,29.92,NW,321,0.0,2.0,92,0.00,,,0.00,,2013-06-03 07:52:00,
2013-06-03 03:02:00,60.0,58.0,29.91,NW,321,1.0,3.0,93,0.00,,,0.00,,2013-06-03 08:02:00,
2013-06-03 03:12:00,60.0,58.0,29.91,NW,321,1.0,3.0,93,0.00,,,0.00,,2013-06-03 08:12:00,
2013-06-03 03:22:00,59.0,57.0,29.91,NW,320,1.0,2.0,93,0.00,,,0.00,,2013-06-03 08:22:00,
2013-06-03 03:32:00,59.0,57.0,29.91,NW,320,0.0,1.0,94,0.00,,,0.00,,2013-06-03 08:32:00,
2013-06-03 03:42:00,59.0,57.0,29.91,NW,320,0.0,1.0,94,0.00,,,0.00,,2013-06-03 08:42:00,
2013-06-03 03:52:00,59.0,57.0,29.91,NW,320,0.0,0.0,94,0.00,,,0.00,,2013-06-03 08:52:00,
2013-06-03 04:02:00,59.0,57.0,29.92,NW,320,0.0,0.0,94,0.00,,,0.00,,2013-06-03 09:02:00,
2013-06-03 04:12:00,59.0,57.0,29.92,NW,320,0.0,0.0,94,0.00,,,0.00,,2013-06-03 09:12:00,
2013-06-03 04:22:00,59.0,57.0,29.92,NW,320,0.0,1.0,94,0.00,,,0.00,,2013-06-03 09:22:00,
2013-06-03 04:33:00,59.0,58.0,29.93,NW,320,0.0,0.0,95,0.00,,,0.00,,2013-06-03 09:33:00,
2013-06-03 04:42:00,59.0,58.0,29.93,NW,320,0.0,0.0,95,0.00,,,0.00,,2013-06-03 09:42:00,
2013-06-03 04:52:00,59.0,58.0,29.93,NW,320,0.0,2.0,95,0.00,,,0.00,,2013-06-03 09:52:00,
2013-06-03 05:03:00,59.0,58.0,29.93,NW,320,1.0,2.0,96,0.00,,,0.00,,2013-06-03 10:03:00,
2013-06-03 05:12:00,59.0,58.0,29.93,NW,320,0.0,3.0,96,0.00,,,0.00,,2013-06-03 10:12:00,
2013-06-03 05:22:00,59.0,58.0,29.93,NW,320,0.0,3.0,96,0.00,,,0.00,,2013-06-03 10:22:00,
2013-06-03 05:33:00,59.0,58.0,29.95,NW,320,0.0,0.0,96,0.00,,,0.00,,2013-06-03 10:33:00,
2013-06-03 05:42:00,59.0,58.0,29.95,NW,320,0.0,0.0,96,0.00,,,0.00,,2013-06-03 10:42:00,
2013-06-03 05:52:00,59.0,58.0,29.95,NW,320,0.0,1.0,96,0.00,,,0.00,,2013-06-03 10:52:00,
2013-06-03 06:02:00,59.0,58.0,29.96,NW,320,1.0,1.0,96,0.00,,,0.00,,2013-06-03 11:02:00,
2013-06-03 06:12:00,59.0,58.0,29.96,NW,320,1.0,1.0,96,0.00,,,0.00,,2013-06-03 11:12:00,
2013-06-03 06:22:00,59.0,58.0,29.96,NW,321,0.0,0.0,96,0.00,,,0.00,,2013-06-03 11:22:00,
2013-06-03 06:32:00,59.0,58.0,29.97,NNW,342,2.0,2.0,95,0.00,,,0.00,,2013-06-03 11:32:00,
2013-06-03 06:42:00,59.0,58.0,29.97,NNW,342,2.0,2.0,95,0.00,,,0.00,,2013-06-03 11:42:00,
2013-06-03 06:52:00,59.0,58.0,29.97,NNW,342,0.0,2.0,95,0.00,,,0.00,,2013-06-03 11:52:00,
2013-06-03 07:02:00,59.0,57.0,29.97,NNE,24,1.0,3.0,93,0.00,,,0.00,,2013-06-03 12:02:00,
2013-06-03 07:12:00,59.0,57.0,29.97,NNE,24,1.0,3.0,93,0.00,,,0.00,,2013-06-03 12:12:00,
2013-06-03 07:22:00,59.0,57.0,29.97,NNE,24,2.0,2.0,92,0.00,,,0.00,,2013-06-03 12:22:00,
2013-06-03 07:32:00,59.0,56.0,29.98,NNE,30,2.0,3.0,89,0.00,,,0.00,,2013-06-03 12:32:00,
2013-06-03 07:42:00,59.0,56.0,29.98,NNE,30,2.0,3.0,89,0.00,,,0.00,,2013-06-03 12:42:00,
2013-06-03 07:52:00,59.0,55.0,29.98,NE,40,2.0,3.0,87,0.00,,,0.00,,2013-06-03 12:52:00,
2013-06-03 08:02:00,59.0,54.0,30.00,NE,40,1.0,3.0,85,0.00,,,0.00,,2013-06-03 13:02:00,
2013-06-03 08:12:00,59.0,54.0,30.00,NE,40,1.0,3.0,85,0.00,,,0.00,,2013-06-03 13:12:00,
2013-06-03 08:22:00,60.0,55.0,30.00,NE,40,3.0,4.0,85,0.00,,,0.00,,2013-06-03 13:22:00,
2013-06-03 08:32:00,60.0,54.0,30.01,NNE,26,4.0,5.0,82,0.00,,,0.00,,2013-06-03 13:32:00,
2013-06-03 08:42:00,60.0,54.0,30.01,NNE,26,4.0,5.0,82,0.00,,,0.00,,2013-06-03 13:42:00,
2013-06-03 08:52:00,60.0,54.0,30.01,NE,42,2.0,3.0,80,0.00,,,0.00,,2013-06-03 13:52:00,
2013-06-03 09:02:00,60.0,53.0,30.02,NE,49,1.0,5.0,79,0.00,,,0.00,,2013-06-03 14:02:00,
2013-06-03 09:12:00,60.0,53.0,30.02,NE,49,1.0,5.0,79,0.00,,,0.00,,2013-06-03 14:12:00,
2013-06-03 09:22:00,61.0,54.0,30.02,NNW,329,0.0,3.0,79,0.00,,,0.00,,2013-06-03 14:22:00,
2013-06-03 09:32:00,61.0,53.0,30.03,NNE,18,1.0,3.0,74,0.00,,,0.00,,2013-06-03 14:32:00,
2013-06-03 09:42:00,61.0,53.0,30.03,NNE,18,1.0,3.0,74,0.00,,,0.00,,2013-06-03 14:42:00,
2013-06-03 09:52:00,62.0,53.0,30.03,NW,325,3.0,5.0,73,0.00,,,0.00,,2013-06-03 14:52:00,
2013-06-03 10:02:00,62.0,53.0,30.03,NW,319,0.0,1.0,73,0.00,,,0.00,,2013-06-03 15:02:00,
2013-06-03 10:12:00,62.0,53.0,30.03,NW,319,0.0,1.0,73,0.00,,,0.00,,2013-06-03 15:12:00,
2013-06-03 10:22:00,62.0,53.0,30.03,NE,41,0.0,4.0,72,0.00,,,0.00,,2013-06-03 15:22:00,
2013-06-03 10:33:00,63.0,52.0,30.02,NE,44,3.0,3.0,68,0.00,,,0.00,,2013-06-03 15:33:00,
2013-06-03 10:43:00,63.0,52.0,30.02,NE,44,3.0,3.0,68,0.00,,,0.00,,2013-06-03 15:43:00,
2013-06-03 10:53:00,64.0,53.0,30.02,NNW,342,3.0,3.0,68,0.00,,,0.00,,2013-06-03 15:53:00,
2013-06-03 11:03:00,64.0,52.0,30.02,NE,46,0.0,0.0,65,0.00,,,0.00,,2013-06-03 16:03:00,
2013-06-03 11:13:00,64.0,54.0,30.02,NE,43,2.0,2.0,69,0.00,,,0.00,,2013-06-03 16:13:00,
2013-06-03 11:23:00,64.0,54.0,30.02,NE,43,2.0,2.0,69,0.00,,,0.00,,2013-06-03 16:23:00,
2013-06-03 11:33:00,65.0,53.0,30.01,NNW,327,3.0,3.0,65,0.00,,,0.00,,2013-06-03 16:33:00,
2013-06-03 11:42:00,65.0,52.0,30.01,NE,44,3.0,3.0,62,0.00,,,0.00,,2013-06-03 16:42:00,
2013-06-03 11:53:00,65.0,52.0,30.01,NE,44,3.0,3.0,62,0.00,,,0.00,,2013-06-03 16:53:00,
2013-06-03 12:02:00,66.0,53.0,30.00,NW,311,3.0,3.0,64,0.00,,,0.00,,2013-06-03 17:02:00,
2013-06-03 12:12:00,66.0,53.0,30.00,NW,311,3.0,3.0,64,0.00,,,0.00,,2013-06-03 17:12:00,
2013-06-03 12:22:00,66.0,54.0,30.00,NNE,30,2.0,3.0,66,0.00,,,0.00,,2013-06-03 17:22:00,
2013-06-03 12:33:00,66.0,53.0,30.00,NW,309,4.0,5.0,64,0.00,,,0.00,,2013-06-03 17:33:00,
2013-06-03 12:42:00,66.0,53.0,30.00,NW,309,4.0,5.0,64,0.00,,,0.00,,2013-06-03 17:42:00,
2013-06-03 12:52:00,66.0,54.0,30.00,NNW,347,3.0,4.0,65,0.00,,,0.00,,2013-06-03 17:52:00,
2013-06-03 13:02:00,66.0,54.0,30.00,NNE,28,2.0,4.0,66,0.00,,,0.00,,2013-06-03 18:02:00,
2013-06-03 13:12:00,67.0,54.0,30.00,NE,55,0.0,3.0,64,0.00,,,0.00,,2013-06-03 18:12:00,
2013-06-03 13:22:00,67.0,54.0,30.00,NE,55,0.0,3.0,64,0.00,,,0.00,,2013-06-03 18:22:00,
2013-06-03 13:32:00,66.0,53.0,29.99,NW,314,4.0,6.0,63,0.00,,,0.00,,2013-06-03 18:32:00,
2013-06-03 13:42:00,66.0,53.0,29.99,NW,314,4.0,6.0,63,0.00,,,0.00,,2013-06-03 18:42:00,
2013-06-03 13:52:00,66.0,54.0,29.99,NW,308,1.0,3.0,66,0.00,,,0.00,,2013-06-03 18:52:00,
2013-06-03 14:03:00,66.0,53.0,29.98,NNE,17,3.0,3.0,62,0.00,,,0.00,,2013-06-03 19:03:00,
2013-06-03 14:12:00,66.0,53.0,29.98,NNE,17,3.0,3.0,62,0.00,,,0.00,,2013-06-03 19:12:00,
2013-06-03 14:22:00,67.0,54.0,29.98,NNW,333,0.0,2.0,62,0.00,,,0.00,,2013-06-03 19:22:00,
2013-06-03 14:32:00,66.0,53.0,29.97,NNW,332,3.0,4.0,63,0.00,,,0.00,,2013-06-03 19:32:00,
2013-06-03 14:42:00,66.0,53.0,29.97,NNW,332,3.0,4.0,63,0.00,,,0.00,,2013-06-03 19:42:00,
2013-06-03 14:52:00,66.0,53.0,29.97,North,5,1.0,2.0,63,0.00,,,0.00,,2013-06-03 19:52:00,
2013-06-03 15:02:00,68.0,56.0,29.96,ENE,57,4.0,5.0,65,0.00,,,0.00,,2013-06-03 20:02:00,
2013-06-03 15:12:00,68.0,56.0,29.96,ENE,57,4.0,5.0,65,0.00,,,0.00,,2013-06-03 20:12:00,
2013-06-03 15:22:00,67.0,51.0,29.96,NE,42,1.0,3.0,57,0.00,,,0.00,,2013-06-03 20:22:00,
2013-06-03 15:32:00,67.0,53.0,29.96,NE,40,2.0,3.0,61,0.00,,,0.00,,2013-06-03 20:32:00,
2013-06-03 15:42:00,67.0,53.0,29.96,NE,40,2.0,3.0,61,0.00,,,0.00,,2013-06-03 20:42:00,
2013-06-03 15:52:00,69.0,53.0,29.96,NNW,336,1.0,5.0,57,0.00,,,0.00,,2013-06-03 20:52:00,
2013-06-03 16:02:00,68.0,52.0,29.95,NW,311,2.0,3.0,56,0.00,,,0.00,,2013-06-03 21:02:00,
2013-06-03 16:12:00,68.0,52.0,29.95,NW,311,2.0,3.0,56,0.00,,,0.00,,2013-06-03 21:12:00,
2013-06-03 16:22:00,68.0,51.0,29.95,NW,315,3.0,3.0,55,0.00,,,0.00,,2013-06-03 21:22:00,
2013-06-03 16:33:00,67.0,53.0,29.95,WNW,302,0.0,2.0,61,0.00,,,0.00,,2013-06-03 21:33:00,
2013-06-03 16:43:00,67.0,53.0,29.95,WNW,302,0.0,2.0,61,0.00,,,0.00,,2013-06-03 21:43:00,
2013-06-03 16:52:00,68.0,52.0,29.95,SW,230,2.0,2.0,57,0.00,,,0.00,,2013-06-03 21:52:00,
2013-06-03 17:03:00,68.0,52.0,29.94,SW,232,2.0,3.0,56,0.00,,,0.00,,2013-06-03 22:03:00,
2013-06-03 17:12:00,68.0,52.0,29.94,SW,232,2.0,3.0,56,0.00,,,0.00,,2013-06-03 22:12:00,
2013-06-03 17:22:00,68.0,52.0,29.94,SW,232,0.0,1.0,56,0.00,,,0.00,,2013-06-03 22:22:00,
2013-06-03 17:32:00,69.0,53.0,29.93,SW,232,2.0,2.0,57,0.00,,,0.00,,2013-06-03 22:32:00,
2013-06-03 17:42:00,69.0,53.0,29.93,SW,232,2.0,2.0,57,0.00,,,0.00,,2013-06-03 22:42:00,
2013-06-03 17:52:00,70.0,52.0,29.93,North,5,1.0,4.0,52,0.00,,,0.00,,2013-06-03 22:52:00,
2013-06-03 18:02:00,69.0,53.0,29.94,NNW,338,2.0,6.0,56,0.00,,,0.00,,2013-06-03 23:02:00,
2013-06-03 18:12:00,69.0,53.0,29.94,NNW,338,2.0,6.0,56,0.00,,,0.00,,2013-06-03 23:12:00,
2013-06-03 18:22:00,68.0,53.0,29.94,North,355,1.0,3.0,58,0.00,,,0.00,,2013-06-03 23:22:00,
2013-06-03 18:32:00,68.0,53.0,29.95,NW,321,1.0,2.0,58,0.00,,,0.00,,2013-06-03 23:32:00,
2013-06-03 18:42:00,68.0,53.0,29.95,NW,321,1.0,2.0,58,0.00,,,0.00,,2013-06-03 23:42:00,
2013-06-03 18:52:00,67.0,50.0,29.95,NW,321,0.0,0.0,55,0.00,,,0.00,,2013-06-03 23:52:00,
2013-06-03 19:02:00,67.0,51.0,29.96,NNW,334,1.0,2.0,57,0.00,,,0.00,,2013-06-04 00:02:00,
2013-06-03 19:12:00,67.0,51.0,29.96,NNW,334,1.0,2.0,57,0.00,,,0.00,,2013-06-04 00:12:00,
2013-06-03 19:22:00,67.0,52.0,29.96,NNW,334,0.0,1.0,59,0.00,,,0.00,,2013-06-04 00:22:00,
2013-06-03 19:32:00,67.0,53.0,29.95,NNW,334,0.0,0.0,61,0.00,,,0.00,,2013-06-04 00:32:00,
2013-06-03 19:42:00,67.0,53.0,29.95,NNW,334,0.0,0.0,61,0.00,,,0.00,,2013-06-04 00:42:00,
2013-06-03 19:52:00,67.0,53.0,29.95,NNW,334,0.0,1.0,60,0.00,,,0.00,,2013-06-04 00:52:00,
2013-06-03 20:02:00,67.0,53.0,29.96,NNW,334,0.0,0.0,60,0.00,,,0.00,,2013-06-04 01:02:00,
2013-06-03 20:12:00,67.0,53.0,29.96,NNW,334,0.0,0.0,60,0.00,,,0.00,,2013-06-04 01:12:00,
2013-06-03 20:22:00,67.0,54.0,29.96,NNW,334,0.0,0.0,64,0.00,,,0.00,,2013-06-04 01:22:00,
2013-06-03 20:32:00,65.0,55.0,29.96,NNW,334,0.0,0.0,69,0.00,,,0.00,,2013-06-04 01:32:00,
2013-06-03 20:42:00,65.0,55.0,29.96,NNW,334,0.0,0.0,69,0.00,,,0.00,,2013-06-04 01:42:00,
2013-06-03 20:52:00,64.0,54.0,29.96,NNW,334,0.0,0.0,70,0.00,,,0.00,,2013-06-04 01:52:00,
2013-06-03 21:02:00,62.0,54.0,29.96,NNW,334,0.0,0.0,74,0.00,,,0.00,,2013-06-04 02:02:00,
2013-06-03 21:12:00,62.0,54.0,29.96,NNW,334,0.0,0.0,74,0.00,,,0.00,,2013-06-04 02:12:00,
2013-06-03 21:22:00,62.0,54.0,29.96,NNW,334,0.0,0.0,75,0.00,,,0.00,,2013-06-04 02:22:00,
2013-06-03 21:32:00,60.0,53.0,29.97,NNW,334,0.0,0.0,77,0.00,,,0.00,,2013-06-04 02:32:00,
2013-06-03 21:42:00,60.0,53.0,29.97,NNW,334,0.0,0.0,77,0.00,,,0.00,,2013-06-04 02:42:00,
2013-06-03 21:52:00,60.0,53.0,29.97,NNW,334,0.0,0.0,78,0.00,,,0.00,,2013-06-04 02:52:00,
2013-06-03 22:02:00,59.0,53.0,29.98,NNW,334,0.0,0.0,80,0.00,,,0.00,,2013-06-04 03:02:00,
2013-06-03 22:12:00,59.0,53.0,29.98,NNW,334,0.0,0.0,80,0.00,,,0.00,,2013-06-04 03:12:00,
2013-06-03 22:22:00,58.0,52.0,29.98,NNW,334,0.0,0.0,81,0.00,,,0.00,,2013-06-04 03:22:00,
2013-06-03 22:32:00,58.0,53.0,29.99,NNW,334,0.0,0.0,82,0.00,,,0.00,,2013-06-04 03:32:00,
2013-06-03 22:43:00,58.0,53.0,29.99,NNW,334,0.0,0.0,82,0.00,,,0.00,,2013-06-04 03:43:00,
2013-06-03 22:53:00,58.0,53.0,29.99,NNW,334,0.0,0.0,82,0.00,,,0.00,,2013-06-04 03:53:00,
2013-06-03 23:03:00,57.0,52.0,30.00,NNW,334,0.0,0.0,84,0.00,,,0.00,,2013-06-04 04:03:00,
2013-06-03 23:13:00,57.0,52.0,30.00,NNW,334,0.0,0.0,84,0.00,,,0.00,,2013-06-04 04:13:00,
2013-06-03 23:23:00,57.0,52.0,30.00,NNW,334,0.0,0.0,84,0.00,,,0.00,,2013-06-04 04:23:00,
2013-06-03 23:33:00,57.0,52.0,30.00,NNW,334,0.0,0.0,84,0.00,,,0.00,,2013-06-04 04:33:00,
2013-06-03 23:42:00,57.0,52.0,30.00,NNW,334,0.0,0.0,84,0.00,,,0.00,,2013-06-04 04:42:00,
2013-06-03 23:53:00,56.0,52.0,30.00,NNW,334,0.0,0.0,85,0.00,,,0.00,,2013-06-04 04:53:00,